Time,TemperatureF,DewpointF,PressureIn,WindDirection,WindDirectionDegrees,WindSpeedMPH,WindSpeedGustMPH,Humidity,HourlyPrecipIn,Conditions,Clouds,dailyrainin,SoftwareType,DateUTC
2013-04-29 00:02:00,56.3,47.0,30.12,West,260,4.0,5.0,72,0.00,,,0.04,weatherlink.com 1.10,2013-04-29 04:02:00,
2013-04-29 00:17:00,56.1,48.0,30.12,WSW,244,0.0,4.0,74,0.00,,,0.00,weatherlink.com 1.10,2013-04-29 04:17:00,
2013-04-29 00:32:00,55.9,48.0,30.12,WSW,257,0.0,4.0,75,0.00,,,0.00,weatherlink.com 1.10,2013-04-29 04:32:00,
2013-04-29 00:47:00,55.8,48.0,30.12,West,269,0.0,4.0,75,0.00,,,0.00,weatherlink.com 1.10,2013-04-29 04:47:00,
2013-04-29 01:02:00,55.6,48.0,30.11,SSE,157,0.0,3.0,75,0.00,,,0.00,weatherlink.com 1.10,2013-04-29 05:02:00,
2013-04-29 01:17:00,55.4,48.0,30.12,SSE,156,0.0,1.0,76,0.00,,,0.00,weatherlink.com 1.10,2013-04-29 05:17:00,
2013-04-29 01:32:00,55.0,48.0,30.11,WSW,257,0.0,4.0,77,0.00,,,0.00,weatherlink.com 1.10,2013-04-29 05:32:00,
2013-04-29 01:47:00,54.5,48.0,30.11,South,170,1.0,2.0,79,0.00,,,0.00,weatherlink.com 1.10,2013-04-29 05:47:00,
2013-04-29 02:02:00,53.9,48.0,30.11,SSE,157,0.0,1.0,81,0.00,,,0.00,weatherlink.com 1.10,2013-04-29 06:02:00,
2013-04-29 02:17:00,53.4,48.0,30.10,SW,236,0.0,2.0,82,0.00,,,0.00,weatherlink.com 1.10,2013-04-29 06:17:00,
2013-04-29 02:32:00,53.2,48.0,30.10,SW,236,0.0,1.0,83,0.00,,,0.00,weatherlink.com 1.10,2013-04-29 06:32:00,
2013-04-29 02:47:00,52.8,48.0,30.09,SW,236,0.0,0.0,85,0.00,,,0.00,weatherlink.com 1.10,2013-04-29 06:47:00,
2013-04-29 03:02:00,52.5,49.0,30.09,SW,236,0.0,0.0,86,0.00,,,0.00,weatherlink.com 1.10,2013-04-29 07:02:00,
2013-04-29 03:17:00,52.2,49.0,30.09,SW,215,2.0,3.0,88,0.00,,,0.00,weatherlink.com 1.10,2013-04-29 07:17:00,
2013-04-29 03:32:00,51.8,49.0,30.08,SSE,168,0.0,2.0,89,0.00,,,0.00,weatherlink.com 1.10,2013-04-29 07:32:00,
2013-04-29 03:47:00,51.5,49.0,30.08,SSE,168,0.0,1.0,90,0.01,,,0.01,weatherlink.com 1.10,2013-04-29 07:47:00,
2013-04-29 04:02:00,51.3,49.0,30.07,SSE,168,0.0,1.0,90,0.01,,,0.01,weatherlink.com 1.10,2013-04-29 08:02:00,
2013-04-29 04:17:00,51.3,49.0,30.07,SSE,168,0.0,0.0,91,0.01,,,0.01,weatherlink.com 1.10,2013-04-29 08:17:00,
2013-04-29 04:32:00,51.4,49.0,30.07,SSE,168,0.0,1.0,92,0.01,,,0.01,weatherlink.com 1.10,2013-04-29 08:32:00,
2013-04-29 04:47:00,51.5,49.0,30.07,SSE,168,0.0,0.0,92,0.00,,,0.01,weatherlink.com 1.10,2013-04-29 08:47:00,
2013-04-29 05:02:00,51.5,49.0,30.07,SSE,168,0.0,0.0,92,0.00,,,0.01,weatherlink.com 1.10,2013-04-29 09:02:00,
2013-04-29 05:17:00,51.6,50.0,30.07,West,263,0.0,1.0,93,0.00,,,0.01,weatherlink.com 1.10,2013-04-29 09:17:00,
2013-04-29 05:33:00,51.8,50.0,30.07,South,174,0.0,3.0,93,0.01,,,0.02,weatherlink.com 1.10,2013-04-29 09:33:00,
2013-04-29 05:48:00,52.1,50.0,30.07,South,172,0.0,1.0,93,0.02,,,0.03,weatherlink.com 1.10,2013-04-29 09:48:00,
2013-04-29 06:03:00,52.2,51.0,30.07,South,172,0.0,0.0,94,0.03,,,0.04,weatherlink.com 1.10,2013-04-29 10:03:00,
2013-04-29 06:18:00,52.2,51.0,30.07,South,172,0.0,2.0,94,0.03,,,0.04,weatherlink.com 1.10,2013-04-29 10:18:00,
2013-04-29 06:33:00,52.2,51.0,30.07,South,173,0.0,0.0,94,0.02,,,0.04,weatherlink.com 1.10,2013-04-29 10:33:00,
2013-04-29 06:48:00,52.3,51.0,30.07,South,173,0.0,0.0,94,0.01,,,0.04,weatherlink.com 1.10,2013-04-29 10:48:00,
2013-04-29 07:03:00,52.3,51.0,30.08,South,173,0.0,0.0,95,0.00,,,0.04,weatherlink.com 1.10,2013-04-29 11:03:00,
2013-04-29 07:18:00,52.4,51.0,30.08,SSW,207,0.0,0.0,95,0.00,,,0.04,weatherlink.com 1.10,2013-04-29 11:18:00,
2013-04-29 07:33:00,52.5,51.0,30.08,SSW,207,0.0,0.0,95,0.00,,,0.04,weatherlink.com 1.10,2013-04-29 11:33:00,
2013-04-29 07:48:00,52.6,51.0,30.08,SSW,207,0.0,0.0,95,0.00,,,0.04,weatherlink.com 1.10,2013-04-29 11:48:00,
2013-04-29 08:03:00,52.8,52.0,30.08,SSW,207,0.0,0.0,95,0.00,,,0.04,weatherlink.com 1.10,2013-04-29 12:03:00,
2013-04-29 08:18:00,53.1,52.0,30.08,SSW,207,0.0,0.0,95,0.00,,,0.04,weatherlink.com 1.10,2013-04-29 12:18:00,
2013-04-29 08:33:00,53.3,52.0,30.08,SSW,207,0.0,1.0,95,0.00,,,0.04,weatherlink.com 1.10,2013-04-29 12:33:00,
2013-04-29 08:48:00,53.2,52.0,30.08,SSW,207,0.0,0.0,95,0.00,,,0.04,weatherlink.com 1.10,2013-04-29 12:48:00,
2013-04-29 09:03:00,53.3,52.0,30.08,SSW,207,0.0,0.0,95,0.01,,,0.05,weatherlink.com 1.10,2013-04-29 13:03:00,
2013-04-29 09:18:00,53.5,52.0,30.08,SSW,207,0.0,1.0,96,0.02,,,0.06,weatherlink.com 1.10,2013-04-29 13:18:00,
2013-04-29 09:33:00,53.5,52.0,30.08,SSW,207,0.0,0.0,96,0.02,,,0.06,weatherlink.com 1.10,2013-04-29 13:33:00,
2013-04-29 09:48:00,53.8,53.0,30.08,SSW,207,0.0,0.0,96,0.08,,,0.12,weatherlink.com 1.10,2013-04-29 13:48:00,
2013-04-29 10:03:00,54.1,53.0,30.07,SSW,207,0.0,0.0,96,0.09,,,0.14,weatherlink.com 1.10,2013-04-29 14:03:00,
2013-04-29 10:18:00,54.2,53.0,30.07,SSW,207,0.0,0.0,96,0.09,,,0.15,weatherlink.com 1.10,2013-04-29 14:18:00,
2013-04-29 10:33:00,54.6,54.0,30.07,SSW,207,0.0,0.0,96,0.10,,,0.17,weatherlink.com 1.10,2013-04-29 14:33:00,
2013-04-29 10:48:00,55.0,54.0,30.07,SSW,207,0.0,0.0,96,0.08,,,0.20,weatherlink.com 1.10,2013-04-29 14:48:00,
2013-04-29 11:03:00,55.5,54.0,30.07,SSW,207,0.0,0.0,96,0.06,,,0.20,weatherlink.com 1.10,2013-04-29 15:03:00,
2013-04-29 11:18:00,55.8,55.0,30.07,SSW,207,0.0,0.0,96,0.06,,,0.21,weatherlink.com 1.10,2013-04-29 15:18:00,
2013-04-29 11:33:00,56.0,55.0,30.06,SSW,207,0.0,0.0,96,0.06,,,0.24,weatherlink.com 1.10,2013-04-29 15:33:00,
2013-04-29 11:48:00,56.4,55.0,30.06,SSW,207,0.0,0.0,96,0.05,,,0.25,weatherlink.com 1.10,2013-04-29 15:48:00,
2013-04-29 12:03:00,56.4,55.0,30.06,SSW,207,0.0,0.0,96,0.06,,,0.26,weatherlink.com 1.10,2013-04-29 16:03:00,
2013-04-29 12:18:00,56.6,56.0,30.06,SSW,207,0.0,0.0,96,0.06,,,0.27,weatherlink.com 1.10,2013-04-29 16:18:00,
2013-04-29 12:33:00,56.4,55.0,30.06,SSW,207,0.0,0.0,96,0.03,,,0.27,weatherlink.com 1.10,2013-04-29 16:33:00,
2013-04-29 12:48:00,56.6,56.0,30.05,SSW,207,0.0,0.0,96,0.02,,,0.27,weatherlink.com 1.10,2013-04-29 16:48:00,
2013-04-29 13:03:00,56.9,56.0,30.05,SSW,208,0.0,0.0,96,0.01,,,0.27,weatherlink.com 1.10,2013-04-29 17:03:00,
2013-04-29 13:18:00,57.4,56.0,30.05,SSW,207,0.0,0.0,96,0.00,,,0.27,weatherlink.com 1.10,2013-04-29 17:18:00,
2013-04-29 13:33:00,57.6,57.0,30.05,SSW,208,0.0,0.0,96,0.00,,,0.27,weatherlink.com 1.10,2013-04-29 17:33:00,
2013-04-29 13:48:00,57.8,57.0,30.04,SSW,208,0.0,0.0,96,0.01,,,0.28,weatherlink.com 1.10,2013-04-29 17:48:00,
2013-04-29 14:03:00,58.0,57.0,30.03,SSW,207,0.0,1.0,96,0.01,,,0.28,weatherlink.com 1.10,2013-04-29 18:03:00,
2013-04-29 14:18:00,58.3,57.0,30.03,SSW,208,0.0,0.0,96,0.01,,,0.28,weatherlink.com 1.10,2013-04-29 18:18:00,
2013-04-29 14:33:00,58.7,58.0,30.03,SW,217,0.0,2.0,96,0.01,,,0.28,weatherlink.com 1.10,2013-04-29 18:33:00,
2013-04-29 14:48:00,59.0,58.0,30.03,SW,218,0.0,2.0,96,0.00,,,0.28,weatherlink.com 1.10,2013-04-29 18:48:00,
2013-04-29 15:03:00,59.4,58.0,30.03,SW,218,0.0,0.0,96,0.00,,,0.28,weatherlink.com 1.10,2013-04-29 19:03:00,
2013-04-29 15:18:00,59.3,58.0,30.02,SW,218,0.0,1.0,96,0.00,,,0.28,weatherlink.com 1.10,2013-04-29 19:18:00,
2013-04-29 15:33:00,59.1,58.0,30.03,SE,136,0.0,9.0,95,0.01,,,0.29,weatherlink.com 1.10,2013-04-29 19:33:00,
2013-04-29 15:48:00,59.4,58.0,30.02,SSE,150,4.0,4.0,96,0.01,,,0.29,weatherlink.com 1.10,2013-04-29 19:48:00,
2013-04-29 16:03:00,59.4,58.0,30.02,SSW,209,0.0,3.0,96,0.01,,,0.29,weatherlink.com 1.10,2013-04-29 20:03:00,
2013-04-29 16:18:00,59.1,58.0,30.02,SE,126,0.0,2.0,96,0.01,,,0.29,weatherlink.com 1.10,2013-04-29 20:18:00,
2013-04-29 16:33:00,59.1,58.0,30.02,SSE,167,2.0,7.0,95,0.01,,,0.30,weatherlink.com 1.10,2013-04-29 20:33:00,
2013-04-29 16:48:00,59.2,58.0,30.02,SSE,168,0.0,6.0,94,0.01,,,0.30,weatherlink.com 1.10,2013-04-29 20:48:00,
2013-04-29 17:03:00,59.0,57.0,30.02,SSE,163,0.0,5.0,94,0.01,,,0.30,weatherlink.com 1.10,2013-04-29 21:03:00,
2013-04-29 17:18:00,59.0,57.0,30.02,WSW,244,0.0,6.0,94,0.01,,,0.30,weatherlink.com 1.10,2013-04-29 21:18:00,
2013-04-29 17:33:00,59.0,57.0,30.02,South,171,0.0,4.0,94,0.00,,,0.30,weatherlink.com 1.10,2013-04-29 21:33:00,
2013-04-29 17:48:00,59.2,57.0,30.02,ESE,118,0.0,4.0,93,0.00,,,0.30,weatherlink.com 1.10,2013-04-29 21:48:00,
2013-04-29 18:03:00,59.0,57.0,30.02,SE,146,0.0,5.0,93,0.00,,,0.30,weatherlink.com 1.10,2013-04-29 22:03:00,
2013-04-29 18:18:00,59.0,57.0,30.02,SE,140,0.0,3.0,93,0.00,,,0.30,weatherlink.com 1.10,2013-04-29 22:18:00,
2013-04-29 18:33:00,59.0,57.0,30.02,South,188,2.0,3.0,93,0.00,,,0.30,weatherlink.com 1.10,2013-04-29 22:33:00,
2013-04-29 18:48:00,58.8,57.0,30.03,SSE,150,3.0,6.0,93,0.00,,,0.30,weatherlink.com 1.10,2013-04-29 22:48:00,
2013-04-29 19:03:00,58.7,56.0,30.03,SE,133,0.0,6.0,92,0.00,,,0.30,weatherlink.com 1.10,2013-04-29 23:03:00,
2013-04-29 19:18:00,58.6,56.0,30.04,SSE,156,2.0,7.0,92,0.00,,,0.30,weatherlink.com 1.10,2013-04-29 23:18:00,
2013-04-29 19:33:00,58.2,56.0,30.04,SE,146,1.0,6.0,92,0.00,,,0.30,weatherlink.com 1.10,2013-04-29 23:33:00,
2013-04-29 19:48:00,57.8,55.0,30.04,South,171,0.0,6.0,91,0.00,,,0.30,weatherlink.com 1.10,2013-04-29 23:48:00,
2013-04-29 20:03:00,57.7,55.0,30.05,SE,146,0.0,3.0,92,0.00,,,0.30,weatherlink.com 1.10,2013-04-30 00:03:00,
2013-04-29 20:18:00,57.4,55.0,30.05,SE,142,0.0,7.0,92,0.00,,,0.30,weatherlink.com 1.10,2013-04-30 00:18:00,
2013-04-29 20:33:00,57.3,55.0,30.06,SSE,149,0.0,1.0,92,0.00,,,0.30,weatherlink.com 1.10,2013-04-30 00:33:00,
2013-04-29 20:48:00,57.0,55.0,30.06,SE,143,0.0,4.0,93,0.00,,,0.30,weatherlink.com 1.10,2013-04-30 00:48:00,
2013-04-29 21:03:00,56.8,55.0,30.07,ESE,121,0.0,1.0,93,0.00,,,0.30,weatherlink.com 1.10,2013-04-30 01:03:00,
2013-04-29 21:18:00,56.7,55.0,30.08,South,171,0.0,5.0,93,0.00,,,0.30,weatherlink.com 1.10,2013-04-30 01:18:00,
2013-04-29 21:33:00,56.5,55.0,30.08,South,173,0.0,1.0,93,0.00,,,0.30,weatherlink.com 1.10,2013-04-30 01:33:00,
2013-04-29 21:48:00,56.3,54.0,30.09,South,173,0.0,1.0,93,0.00,,,0.30,weatherlink.com 1.10,2013-04-30 01:48:00,
2013-04-29 22:03:00,56.1,54.0,30.09,South,173,0.0,0.0,94,0.00,,,0.30,weatherlink.com 1.10,2013-04-30 02:03:00,
2013-04-29 22:18:00,55.9,54.0,30.08,South,173,0.0,0.0,94,0.00,,,0.30,weatherlink.com 1.10,2013-04-30 02:18:00,
2013-04-29 22:33:00,55.8,54.0,30.09,South,173,0.0,0.0,94,0.00,,,0.30,weatherlink.com 1.10,2013-04-30 02:33:00,
2013-04-29 22:48:00,55.7,54.0,30.09,South,173,0.0,0.0,95,0.00,,,0.30,weatherlink.com 1.10,2013-04-30 02:48:00,
2013-04-29 23:03:00,55.5,54.0,30.09,South,173,0.0,0.0,95,0.00,,,0.30,weatherlink.com 1.10,2013-04-30 03:03:00,
2013-04-29 23:19:00,55.4,54.0,30.09,South,173,0.0,0.0,95,0.00,,,0.30,weatherlink.com 1.10,2013-04-30 03:19:00,
2013-04-29 23:33:00,55.2,54.0,30.09,South,173,0.0,0.0,95,0.00,,,0.30,weatherlink.com 1.10,2013-04-30 03:33:00,
2013-04-29 23:49:00,55.1,54.0,30.09,South,173,0.0,0.0,95,0.00,,,0.30,weatherlink.com 1.10,2013-04-30 03:49:00,